Content
SEND FEEDBACK

Daily
Averages
Monthly
Summary
United States of America

CHESTERFIELD, MISSOURI


Home > North America > United States > Missouri
Elevation: 170 meters     Latitude: 38 41N     Longitude: 090 31W

WEATHER
 
SELECT A DAY
Number of Records: 203,371;   Date Range: 1/1/95 - 7/23/14
 
SHARE

PRINT THIS DATA

[ ← Previous Day ]
WEATHER ALMANAC - 18 SEPTEMBER, 2013
[ Next Day → ]
[ °F ]   °C
Weather ElementAverageHighLow
Temperature24.4 °C30.6 °C (2:51 pm)19.4 °C (4:51 am)
Dewpoint19.3 °C22.2 °C (4:51 pm)16.1 °C (1:51 am)
Humidity73.8 %90 % (4:51 am)53 % (2:51 pm)
Barometer1016.3 hPa1018.6 hPa (2:51 am)1013.9 hPa (5:51 pm)
Wind Speed12.6 km/h24.1 km/h (4:07 pm)
Wind Gust25.9 km/h (4:18 pm)
Weather ElementAverage
Visibility12.1 km
Wind DirectionSSE (150.7 °)

Weather ElementTotal
Precipitation5.08 mm
Cooling Degree Days6.7 (Base 18.3)
Growing Degree Days15 (Base 10)
Averaged from 30 records on 18 September, 2013
WEATHER CONDITIONS BREAKOUT
WIND DIRECTION BREAKOUT
WEATHER BY HOUR - 18 SEPTEMBER, 2013
[ °F ]   °C
Local TimeTemperatureDewpointHumidityBarometerVisibilityWind DirectionWind SpeedGust SpeedPrecipitationEventsConditions
1:51 AM20.6 °C16.1 °C75 %1017.9 hPa14.5 kmSE (130°)7.4 km/h0 mmOvercast
2:51 AM20 °C17.2 °C84 %1018.6 hPa9.7 kmWNW (290°)5.6 km/h0.25 mmRainLight Rain
3:51 AM20 °C17.8 °C87 %1017.9 hPa8 kmEast (80°)7.4 km/h2.79 mmRainLight Rain
4:51 AM19.4 °C17.8 °C90 %1017.6 hPa8 kmESE (110°)11.1 km/h0.76 mmRainLight Rain
5:51 AM20 °C18.3 °C90 %1017.3 hPa8 kmSE (140°)13 km/h0 mmOvercast
6:39 AM21 °C18 °C83 %1017.9 hPa6.4 kmSE (140°)14.8 km/h0 mmRainLight Rain
6:51 AM20 °C18.3 °C90 %1017.6 hPa6.4 kmSSE (150°)7.4 km/h0 mmRainLight Rain
7:15 AM21 °C18 °C83 %1018.3 hPa8 kmSE (140°)13 km/hMostly Cloudy
7:25 AM21 °C18 °C83 %1018.3 hPa6.4 kmSE (140°)11.1 km/h0 mmRainLight Rain
7:51 AM20.6 °C18.3 °C87 %1017.6 hPa6.4 kmSE (130°)14.8 km/h0 mmMostly Cloudy
8:35 AM21 °C19 °C88 %1018.6 hPa8 kmSE (140°)13 km/hMostly Cloudy
8:51 AM21.1 °C18.3 °C84 %1017.9 hPa8 kmSE (140°)16.7 km/hHaze
9:51 AM23.3 °C18.9 °C76 %1017.9 hPa11.3 kmSSE (150°)16.7 km/hMostly Cloudy
10:51 AM25.6 °C19.4 °C68 %1017.3 hPa16.1 kmSSE (160°)18.5 km/hMostly Cloudy
11:51 AM27.2 °C19.4 °C62 %1016.9 hPa11.3 kmSSE (150°)14.8 km/hMostly Cloudy
12:51 PM28.3 °C20 °C60 %1016.6 hPa16.1 kmSouth (170°)11.1 km/hMostly Cloudy
1:51 PM30 °C20 °C55 %1015.2 hPa16.1 kmSSE (150°)13 km/hMostly Cloudy
2:51 PM30.6 °C20 °C53 %1014.9 hPa16.1 kmSSE (160°)7.4 km/hMostly Cloudy
3:51 PM29.4 °C20.6 °C59 %1014.2 hPa16.1 kmSE (140°)14.8 km/h0 mmRainLight Rain
3:58 PM29 °C20 °C58 %1015.2 hPa11.3 kmSE (140°)14.8 km/h0 mmRain-ThunderstormLight Thunderstorms and Rain
4:07 PM28 °C21 °C66 %1015.2 hPa6.4 kmSE (130°)24.1 km/h0.25 mmRain-ThunderstormLight Thunderstorms and Rain
4:18 PM26 °C22 °C78 %1015.2 hPa12.9 kmSE (130°)11.1 km/h25.9 km/h0.51 mmRain-ThunderstormLight Thunderstorms and Rain
4:51 PM26.1 °C22.2 °C79 %1014.6 hPa16.1 kmESE (120°)14.8 km/h0.51 mmRain-ThunderstormLight Thunderstorms and Rain
5:08 PM27 °C22 °C74 %1015.2 hPa16.1 kmSSE (160°)14.8 km/h0 mmMostly Cloudy
5:51 PM27.8 °C20 °C62 %1013.9 hPa16.1 kmSouth (170°)11.1 km/h0 mmScattered Clouds
6:51 PM26.7 °C20 °C67 %1014.2 hPa16.1 kmSSW (200°)9.3 km/hScattered Clouds
8:51 PM25.6 °C18.9 °C66 %1014.6 hPa16.1 kmSSE (160°)9.3 km/hScattered Clouds
9:51 PM25.6 °C19.4 °C68 %1014.6 hPa16.1 kmSSE (150°)14.8 km/hScattered Clouds
10:51 PM25.6 °C19.4 °C68 %1014.6 hPa16.1 kmSouth (170°)11.1 km/hScattered Clouds
11:51 PM25 °C19.4 °C71 %1014.2 hPa16.1 kmSouth (180°)7.4 km/hScattered Clouds
Hourly data recorded from KSTL, located 0 kilometers away from Chesterfield, Missouri







STORIES FROM OUR PARTNERS